• In United Kingdom
  • List of Countries
  • For 7 days
  • Water Temperature
  • Satellite Maps
  • Weather Map
  • Weather Widgets
  • user-avatar
    Login

    Hourly Weather Ilebo

    Today, 22 September, Friday

    Time Temperature Precipitation Wind Pressure Humidity
    00:00 +25°C° 0 mm 1 mps 722 mmHg 85%
    01:00 +25°C° 0 mm 1 mps 722 mmHg 87%
    02:00 +24°C° 0.1 mm 1 mps 722 mmHg 88%
    03:00 +24°C° 0.1 mm 1 mps 722 mmHg 89%
    04:00 +24°C° 0.1 mm 1 mps 722 mmHg 90%
    05:00 +24°C° 0.1 mm 1 mps 722 mmHg 87%
    06:00 +25°C° 0.1 mm 1 mps 722 mmHg 85%
    07:00 +26°C° 0 mm 1 mps 723 mmHg 81%
    08:00 +28°C° 0.2 mm 1 mps 723 mmHg 75%
    09:00 +30°C° 0.2 mm 1 mps 723 mmHg 68%
    10:00 +32°C° 0.2 mm 1 mps 724 mmHg 61%
    11:00 +32°C° 1.9 mm 1 mps 723 mmHg 63%
    12:00 +32°C° 1.9 mm 1 mps 722 mmHg 65%
    13:00 +33°C° 0 mm 1 mps 722 mmHg 64%
    14:00 +32°C° 0.5 mm 1 mps 722 mmHg 67%
    15:00 +31°C° 0.5 mm 2 mps 721 mmHg 69%
    16:00 +31°C° 0.5 mm 2 mps 721 mmHg 72%
    17:00 +29°C° 0 mm 1 mps 721 mmHg 77%
    18:00 +27°C° 0 mm 1 mps 721 mmHg 81%
    19:00 +26°C° 0 mm 1 mps 721 mmHg 86%
    20:00 +25°C° 0 mm 1 mps 722 mmHg 86%
    21:00 +25°C° 0 mm 1 mps 722 mmHg 86%
    22:00 +24°C° 0 mm 1 mps 722 mmHg 87%
    23:00 +24°C° 0.8 mm 1 mps 722 mmHg 88%

    Tomorrow, 23 September, Saturday

    Time Temperature Precipitation Wind Pressure Humidity
    00:00 +24°C° 0.8 mm 1 mps 723 mmHg 90%
    01:00 +22°C° 0.8 mm 0 mps 723 mmHg 92%
    02:00 +23°C° 0.4 mm 1 mps 723 mmHg 93%
    03:00 +23°C° 0.4 mm 1 mps 723 mmHg 93%
    04:00 +23°C° 0.4 mm 1 mps 722 mmHg 94%
    05:00 +24°C° 0.1 mm 1 mps 723 mmHg 94%
    06:00 +22°C° 0.1 mm 0 mps 723 mmHg 93%
    07:00 +23°C° 0.1 mm 0 mps 724 mmHg 93%
    08:00 +24°C° 0.1 mm 0 mps 724 mmHg 85%
    09:00 +26°C° 0.1 mm 0 mps 725 mmHg 78%
    10:00 +30°C° 0.1 mm 1 mps 725 mmHg 71%
    11:00 +30°C° 0.3 mm 1 mps 724 mmHg 69%
    12:00 +31°C° 0.3 mm 1 mps 724 mmHg 66%
    13:00 +31°C° 0.3 mm 1 mps 723 mmHg 63%
    14:00 +31°C° 0 mm 1 mps 722 mmHg 62%
    15:00 +31°C° 0 mm 1 mps 722 mmHg 62%
    16:00 +32°C° 0 mm 1 mps 721 mmHg 61%
    17:00 +30°C° 0 mm 1 mps 722 mmHg 68%
    18:00 +28°C° 0 mm 1 mps 722 mmHg 74%
    19:00 +26°C° 0 mm 1 mps 722 mmHg 81%
    20:00 +26°C° 0 mm 1 mps 723 mmHg 83%
    21:00 +25°C° 0 mm 1 mps 723 mmHg 85%
    22:00 +25°C° 0 mm 1 mps 724 mmHg 87%
    23:00 +25°C° 0 mm 1 mps 723 mmHg 88%

    Day after tomorrow, 24 September, Sunday

    Time Temperature Precipitation Wind Pressure Humidity
    00:00 +24°C° 0 mm 1 mps 723 mmHg 88%
    01:00 +24°C° 0 mm 1 mps 723 mmHg 89%
    02:00 +24°C° 0 mm 1 mps 722 mmHg 90%
    03:00 +24°C° 0 mm 1 mps 722 mmHg 91%
    04:00 +23°C° 0 mm 1 mps 722 mmHg 92%
    05:00 +24°C° 0 mm 1 mps 723 mmHg 89%
    06:00 +25°C° 0 mm 1 mps 724 mmHg 86%
    07:00 +24°C° 0 mm 0 mps 724 mmHg 83%
    08:00 +27°C° 0 mm 1 mps 724 mmHg 78%
    09:00 +29°C° 0 mm 1 mps 725 mmHg 73%
    10:00 +30°C° 0 mm 1 mps 725 mmHg 67%
    11:00 +31°C° 0 mm 2 mps 724 mmHg 61%
    12:00 +34°C° 0 mm 2 mps 723 mmHg 54%
    13:00 +35°C° 0 mm 2 mps 722 mmHg 48%
    14:00 +34°C° 0 mm 1 mps 721 mmHg 50%
    15:00 +34°C° 0 mm 1 mps 721 mmHg 52%
    16:00 +34°C° 0 mm 1 mps 721 mmHg 53%
    17:00 +31°C° 0.1 mm 1 mps 721 mmHg 60%
    18:00 +29°C° 0.1 mm 1 mps 721 mmHg 67%
    19:00 +27°C° 0.1 mm 1 mps 722 mmHg 74%
    20:00 +26°C° 0.4 mm 1 mps 722 mmHg 79%
    21:00 +25°C° 0.4 mm 1 mps 722 mmHg 84%
    22:00 +25°C° 0.4 mm 1 mps 723 mmHg 89%
    23:00 +24°C° 1.1 mm 1 mps 722 mmHg 91%

    25 September, Monday

    Time Temperature Precipitation Wind Pressure Humidity
    00:00 +24°C° 1.1 mm 1 mps 722 mmHg 93%
    01:00 +24°C° 1.1 mm 1 mps 722 mmHg 96%
    02:00 +24°C° 2.3 mm 1 mps 722 mmHg 96%
    03:00 +23°C° 2.3 mm 1 mps 722 mmHg 96%
    04:00 +23°C° 2.3 mm 1 mps 722 mmHg 97%
    05:00 +24°C° 0.7 mm 1 mps 723 mmHg 96%
    06:00 +24°C° 0.7 mm 1 mps 723 mmHg 96%
    07:00 +24°C° 0.7 mm 1 mps 724 mmHg 95%
    08:00 +25°C° 1.3 mm 1 mps 724 mmHg 94%
    09:00 +26°C° 1.3 mm 1 mps 724 mmHg 92%
    10:00 +26°C° 1.3 mm 1 mps 725 mmHg 91%
    11:00 +27°C° 1.2 mm 1 mps 724 mmHg 89%
    12:00 +27°C° 1.2 mm 1 mps 723 mmHg 87%
    13:00 +28°C° 1.2 mm 2 mps 722 mmHg 85%
    14:00 +28°C° 0.5 mm 1 mps 722 mmHg 85%
    15:00 +28°C° 0.5 mm 1 mps 722 mmHg 85%
    16:00 +27°C° 0.5 mm 1 mps 721 mmHg 85%
    17:00 +27°C° 0 mm 1 mps 722 mmHg 88%
    18:00 +26°C° 0 mm 1 mps 722 mmHg 90%
    19:00 +25°C° 0 mm 1 mps 723 mmHg 93%
    20:00 +24°C° 0 mm 1 mps 723 mmHg 93%
    21:00 +24°C° 0 mm 1 mps 723 mmHg 93%
    22:00 +24°C° 0 mm 1 mps 723 mmHg 92%
    23:00 +24°C° 0 mm 1 mps 723 mmHg 93%

    26 September, Tuesday

    Time Temperature Precipitation Wind Pressure Humidity
    00:00 +24°C° 0 mm 1 mps 722 mmHg 93%
    01:00 +23°C° 0 mm 1 mps 722 mmHg 94%
    02:00 +23°C° 0 mm 1 mps 722 mmHg 94%
    03:00 +23°C° 0 mm 1 mps 722 mmHg 94%
    04:00 +23°C° 0 mm 1 mps 722 mmHg 95%
    05:00 +23°C° 0 mm 1 mps 722 mmHg 92%
    06:00 +24°C° 0 mm 1 mps 723 mmHg 90%
    07:00 +25°C° 0 mm 1 mps 723 mmHg 88%
    08:00 +27°C° 0 mm 1 mps 724 mmHg 78%
    09:00 +30°C° 0 mm 1 mps 724 mmHg 68%
    10:00 +32°C° 0 mm 1 mps 724 mmHg 58%
    11:00 +31°C° 0.3 mm 0 mps 723 mmHg 56%
    12:00 +32°C° 0.3 mm 0 mps 722 mmHg 55%
    13:00 +33°C° 0.3 mm 0 mps 721 mmHg 53%
    14:00 +31°C° 0.6 mm 0 mps 721 mmHg 60%
    15:00 +32°C° 0.6 mm 1 mps 720 mmHg 66%
    16:00 +31°C° 0.6 mm 1 mps 720 mmHg 72%
    17:00 +29°C° 0.4 mm 1 mps 721 mmHg 78%
    18:00 +27°C° 0.4 mm 1 mps 721 mmHg 83%
    19:00 +25°C° 0.4 mm 1 mps 721 mmHg 88%
    20:00 +25°C° 0.3 mm 1 mps 722 mmHg 89%
    21:00 +23°C° 0.3 mm 0 mps 722 mmHg 90%
    22:00 +23°C° 0.3 mm 0 mps 722 mmHg 90%
    23:00 +22°C° 0 mm 0 mps 722 mmHg 90%

    27 September, Wednesday

    Time Temperature Precipitation Wind Pressure Humidity
    00:00 +22°C° 0 mm 0 mps 722 mmHg 90%
    01:00 +22°C° 0 mm 0 mps 721 mmHg 91%
    02:00 +22°C° 0 mm 0 mps 721 mmHg 91%
    03:00 +22°C° 0 mm 0 mps 721 mmHg 92%
    04:00 +21°C° 0 mm 0 mps 722 mmHg 92%
    05:00 +22°C° 0 mm 0 mps 722 mmHg 91%
    06:00 +23°C° 0 mm 0 mps 723 mmHg 90%
    07:00 +25°C° 0 mm 1 mps 724 mmHg 88%
    08:00 +27°C° 0.5 mm 1 mps 724 mmHg 81%
    09:00 +30°C° 0.5 mm 1 mps 724 mmHg 74%
    10:00 +32°C° 0.5 mm 1 mps 724 mmHg 66%
    11:00 +32°C° 0.6 mm 1 mps 723 mmHg 64%
    12:00 +33°C° 0.6 mm 1 mps 722 mmHg 62%
    13:00 +32°C° 0.6 mm 0 mps 721 mmHg 60%
    14:00 +33°C° 0.6 mm 1 mps 721 mmHg 63%
    15:00 +32°C° 0.6 mm 1 mps 721 mmHg 65%
    16:00 +31°C° 0.6 mm 1 mps 720 mmHg 68%
    17:00 +29°C° 1.1 mm 1 mps 721 mmHg 76%
    18:00 +27°C° 1.1 mm 1 mps 722 mmHg 83%
    19:00 +26°C° 1.1 mm 1 mps 722 mmHg 91%
    20:00 +25°C° 0.3 mm 1 mps 722 mmHg 91%
    21:00 +25°C° 0.3 mm 1 mps 722 mmHg 91%
    22:00 +23°C° 0.3 mm 0 mps 723 mmHg 91%
    23:00 +23°C° 0.1 mm 0 mps 722 mmHg 91%
    Show more